This is the latest recevied weather packets stored in our database for station/object K4AVM-13. If no packets are shown the sender has not sent any weather packets the latest 10 day(s).
| Time | Temp. | Humidity | Pressure | Rain* | Wind** | Luminosity | Snow |
|---|---|---|---|---|---|---|---|
| 1777928474 | 26.11° C | 31% | 1013 hPa | 0 mm | - | 333 W/m² | - |
| 1777928173 | 26.11° C | 34% | 1012.8 hPa | 0 mm | - | 374 W/m² | - |
| 1777927870 | 25.56° C | 32% | 1013 hPa | 0 mm | - | 330 W/m² | - |
| 1777927569 | 26.11° C | 31% | 1012.9 hPa | 0 mm | - | 229 W/m² | - |
| 1777927267 | 26.67° C | 31% | 1013.1 hPa | 0 mm | - | 391 W/m² | - |
| 1777926965 | 26.67° C | 31% | 1013.1 hPa | 0 mm | - | 401 W/m² | - |
| 1777926662 | 26.11° C | 31% | 1013.3 hPa | 0 mm | - | 413 W/m² | - |
| 1777926357 | 26.67° C | 31% | 1013.3 hPa | 0 mm | - | 437 W/m² | - |
| 1777926054 | 26.67° C | 33% | 1013.5 hPa | 0 mm | - | 424 W/m² | - |
| 1777925751 | 26.67° C | 31% | 1013.3 hPa | 0 mm | - | 445 W/m² | - |
| 1777925449 | 25.56° C | 34% | 1013.3 hPa | 0 mm | - | 462 W/m² | - |
| 1777925145 | 25.56° C | 32% | 1013.3 hPa | 0 mm | - | 478 W/m² | - |
| 1777924842 | 26.11° C | 31% | 1013.4 hPa | 0 mm | - | 491 W/m² | - |
| 1777924538 | 26.11° C | 32% | 1013.5 hPa | 0 mm | - | 516 W/m² | - |
| 1777924235 | 26.67° C | 32% | 1013.6 hPa | 0 mm | - | 536 W/m² | - |
| 1777923931 | 25.56° C | 32% | 1013.8 hPa | 0 mm | - | 498 W/m² | - |
| 1777923627 | 25.56° C | 32% | 1013.8 hPa | 0 mm | - | 561 W/m² | - |
| 1777923324 | 25° C | 32% | 1013.9 hPa | 0 mm | - | 568 W/m² | - |
| 1777923023 | 24.44° C | 33% | 1014 hPa | 0 mm | - | 550 W/m² | - |
| 1777922720 | 24.44° C | 33% | 1014.1 hPa | 0 mm | - | 348 W/m² | - |
| 1777922418 | 25° C | 34% | 1014.1 hPa | 0 mm | - | 592 W/m² | - |
| 1777922116 | 25° C | 32% | 1014.1 hPa | 0 mm | - | 574 W/m² | - |
| 1777921812 | 25° C | 34% | 1014.5 hPa | 0 mm | - | 589 W/m² | - |
| 1777921508 | 25° C | 32% | 1014.4 hPa | 0 mm | - | 671 W/m² | - |
| 1777921204 | 25° C | 31% | 1014.5 hPa | 0 mm | - | 612 W/m² | - |
* Rain latest hour (hover to see other rain measurements)
** Current wind speed in m/s (hover to see current wind gust speed)